When you browse on this site, cookies collect data to enhance your experience and personalize the content and advertising you see.
Visit our Privacy Policy to learn more. By continuing to use the site, you agree to this use of cookies and data.
  • en France
  • Liste des pays
  • À 7 jours
  • Température de l'eau
  • Carte météo
  • Widgets météo
  • user-avatar
    Se connecter

    Météo par heure à Ad-Dauha

    Ce jour, 30 Mars, Lundi

    Heure Température Précipitation Vent Pression Humidité
    00:00 +24°C° 0 mm 9 m/s 755 mmHg 63%
    01:00 +23°C° 0 mm 9 m/s 754 mmHg 63%
    02:00 +23°C° 0 mm 9 m/s 754 mmHg 62%
    03:00 +23°C° 0 mm 10 m/s 754 mmHg 63%
    04:00 +22°C° 0 mm 9 m/s 755 mmHg 63%
    05:00 +22°C° 0 mm 9 m/s 756 mmHg 63%
    06:00 +22°C° 0 mm 8 m/s 757 mmHg 64%
    07:00 +23°C° 0 mm 9 m/s 757 mmHg 54%
    08:00 +24°C° 0 mm 9 m/s 757 mmHg 45%
    09:00 +27°C° 0 mm 9 m/s 758 mmHg 35%
    10:00 +27°C° 0 mm 9 m/s 758 mmHg 33%
    11:00 +28°C° 0 mm 9 m/s 758 mmHg 30%
    12:00 +29°C° 0 mm 9 m/s 758 mmHg 27%
    13:00 +29°C° 0 mm 9 m/s 758 mmHg 25%
    14:00 +29°C° 0 mm 9 m/s 757 mmHg 23%
    15:00 +28°C° 0 mm 9 m/s 757 mmHg 22%
    16:00 +27°C° 0 mm 9 m/s 757 mmHg 24%
    17:00 +26°C° 0 mm 8 m/s 758 mmHg 26%
    18:00 +24°C° 0 mm 7 m/s 758 mmHg 28%
    19:00 +24°C° 0 mm 6 m/s 758 mmHg 31%
    20:00 +23°C° 0 mm 5 m/s 758 mmHg 35%
    21:00 +22°C° 0 mm 4 m/s 759 mmHg 38%
    22:00 +22°C° 0 mm 4 m/s 759 mmHg 39%
    23:00 +22°C° 0 mm 4 m/s 759 mmHg 40%

    Demain, 31 Mars, Mardi

    Heure Température Précipitation Vent Pression Humidité
    00:00 +21°C° 0 mm 4 m/s 759 mmHg 41%
    01:00 +21°C° 0 mm 4 m/s 759 mmHg 42%
    02:00 +21°C° 0 mm 4 m/s 758 mmHg 43%
    03:00 +21°C° 0 mm 4 m/s 758 mmHg 44%
    04:00 +21°C° 0 mm 4 m/s 759 mmHg 44%
    05:00 +21°C° 0 mm 4 m/s 759 mmHg 44%
    06:00 +21°C° 0 mm 4 m/s 760 mmHg 45%
    07:00 +22°C° 0 mm 5 m/s 760 mmHg 40%
    08:00 +25°C° 0 mm 5 m/s 761 mmHg 36%
    09:00 +27°C° 0 mm 6 m/s 761 mmHg 32%
    10:00 +28°C° 0 mm 6 m/s 761 mmHg 29%
    11:00 +29°C° 0 mm 6 m/s 761 mmHg 26%
    12:00 +30°C° 0 mm 5 m/s 761 mmHg 23%
    13:00 +30°C° 0 mm 6 m/s 760 mmHg 23%
    14:00 +30°C° 0 mm 6 m/s 760 mmHg 22%
    15:00 +30°C° 0 mm 6 m/s 759 mmHg 22%
    16:00 +29°C° 0 mm 5 m/s 759 mmHg 24%
    17:00 +28°C° 0 mm 5 m/s 760 mmHg 25%
    18:00 +27°C° 0 mm 5 m/s 760 mmHg 27%
    19:00 +27°C° 0 mm 4 m/s 760 mmHg 29%
    20:00 +26°C° 0 mm 4 m/s 760 mmHg 31%
    21:00 +25°C° 0 mm 4 m/s 760 mmHg 33%
    22:00 +25°C° 0 mm 4 m/s 760 mmHg 35%
    23:00 +23°C° 0 mm 4 m/s 760 mmHg 37%

    Après-demain, 1 Avril, Mercredi

    Heure Température Précipitation Vent Pression Humidité
    00:00 +23°C° 0 mm 4 m/s 760 mmHg 38%
    01:00 +23°C° 0 mm 4 m/s 759 mmHg 37%
    02:00 +22°C° 0 mm 4 m/s 759 mmHg 37%
    03:00 +22°C° 0 mm 3 m/s 758 mmHg 36%
    04:00 +22°C° 0 mm 3 m/s 759 mmHg 37%
    05:00 +22°C° 0 mm 3 m/s 759 mmHg 37%
    06:00 +22°C° 0 mm 3 m/s 759 mmHg 38%
    07:00 +25°C° 0 mm 3 m/s 759 mmHg 34%
    08:00 +27°C° 0 mm 3 m/s 760 mmHg 30%
    09:00 +29°C° 0 mm 3 m/s 760 mmHg 26%
    10:00 +30°C° 0 mm 3 m/s 760 mmHg 23%
    11:00 +31°C° 0 mm 2 m/s 760 mmHg 21%
    12:00 +34°C° 0 mm 2 m/s 760 mmHg 19%
    13:00 +34°C° 0 mm 2 m/s 759 mmHg 20%
    14:00 +34°C° 0 mm 3 m/s 758 mmHg 20%
    15:00 +34°C° 0 mm 4 m/s 757 mmHg 20%
    16:00 +33°C° 0 mm 4 m/s 758 mmHg 25%
    17:00 +30°C° 0 mm 4 m/s 758 mmHg 30%
    18:00 +28°C° 0 mm 5 m/s 758 mmHg 35%
    19:00 +28°C° 0 mm 4 m/s 758 mmHg 37%
    20:00 +27°C° 0 mm 4 m/s 758 mmHg 38%
    21:00 +27°C° 0 mm 3 m/s 758 mmHg 40%
    22:00 +26°C° 0 mm 3 m/s 758 mmHg 42%
    23:00 +26°C° 0 mm 4 m/s 757 mmHg 43%

    2 Avril, Jeudi

    Heure Température Précipitation Vent Pression Humidité
    00:00 +25°C° 0 mm 4 m/s 757 mmHg 45%
    01:00 +25°C° 0 mm 4 m/s 756 mmHg 46%
    02:00 +25°C° 0 mm 4 m/s 756 mmHg 47%
    03:00 +25°C° 0 mm 3 m/s 755 mmHg 49%
    04:00 +25°C° 0 mm 3 m/s 756 mmHg 48%
    05:00 +25°C° 0 mm 2 m/s 756 mmHg 48%
    06:00 +25°C° 0 mm 2 m/s 757 mmHg 48%
    07:00 +27°C° 0 mm 3 m/s 757 mmHg 41%
    08:00 +29°C° 0 mm 4 m/s 757 mmHg 35%
    09:00 +32°C° 0 mm 4 m/s 758 mmHg 29%
    10:00 +33°C° 0 mm 4 m/s 757 mmHg 26%
    11:00 +34°C° 0 mm 4 m/s 757 mmHg 24%
    12:00 +35°C° 0 mm 4 m/s 757 mmHg 21%
    13:00 +35°C° 0 mm 4 m/s 756 mmHg 22%
    14:00 +34°C° 0 mm 5 m/s 755 mmHg 22%
    15:00 +34°C° 0 mm 5 m/s 754 mmHg 23%
    16:00 +33°C° 0 mm 5 m/s 754 mmHg 27%
    17:00 +30°C° 0 mm 5 m/s 754 mmHg 31%
    18:00 +29°C° 0 mm 6 m/s 754 mmHg 35%
    19:00 +29°C° 0 mm 6 m/s 755 mmHg 35%
    20:00 +29°C° 0 mm 7 m/s 755 mmHg 35%
    21:00 +29°C° 0 mm 7 m/s 755 mmHg 36%
    22:00 +28°C° 0 mm 7 m/s 755 mmHg 37%
    23:00 +28°C° 0 mm 6 m/s 755 mmHg 39%

    3 Avril, Vendredi

    Heure Température Précipitation Vent Pression Humidité
    00:00 +28°C° 0 mm 6 m/s 754 mmHg 41%
    01:00 +27°C° 0 mm 5 m/s 754 mmHg 42%
    02:00 +27°C° 0 mm 4 m/s 754 mmHg 44%
    03:00 +26°C° 0 mm 3 m/s 754 mmHg 46%
    04:00 +26°C° 0 mm 3 m/s 754 mmHg 44%
    05:00 +26°C° 0 mm 2 m/s 754 mmHg 43%
    06:00 +26°C° 0 mm 2 m/s 755 mmHg 42%
    07:00 +29°C° 0 mm 2 m/s 755 mmHg 36%
    08:00 +31°C° 0 mm 2 m/s 756 mmHg 29%
    09:00 +34°C° 0 mm 3 m/s 756 mmHg 23%
    10:00 +35°C° 0 mm 3 m/s 756 mmHg 21%
    11:00 +36°C° 0 mm 3 m/s 756 mmHg 19%
    12:00 +38°C° 0 mm 3 m/s 755 mmHg 17%
    13:00 +37°C° 0 mm 3 m/s 755 mmHg 19%
    14:00 +37°C° 0 mm 3 m/s 755 mmHg 20%
    15:00 +36°C° 0 mm 3 m/s 754 mmHg 22%
    16:00 +35°C° 0 mm 3 m/s 754 mmHg 27%
    17:00 +33°C° 0 mm 4 m/s 755 mmHg 32%
    18:00 +30°C° 0 mm 4 m/s 755 mmHg 37%
    19:00 +29°C° 0 mm 3 m/s 755 mmHg 38%
    20:00 +29°C° 0 mm 3 m/s 756 mmHg 40%
    21:00 +28°C° 0 mm 3 m/s 756 mmHg 42%
    22:00 +28°C° 0 mm 3 m/s 756 mmHg 44%
    23:00 +27°C° 0 mm 3 m/s 756 mmHg 47%

    4 Avril, Samedi

    Heure Température Précipitation Vent Pression Humidité
    00:00 +26°C° 0 mm 4 m/s 756 mmHg 49%
    01:00 +26°C° 0 mm 3 m/s 756 mmHg 50%
    02:00 +26°C° 0 mm 3 m/s 755 mmHg 51%
    03:00 +25°C° 0 mm 3 m/s 755 mmHg 52%
    04:00 +25°C° 0 mm 3 m/s 756 mmHg 52%
    05:00 +25°C° 0 mm 3 m/s 756 mmHg 51%
    06:00 +25°C° 0 mm 2 m/s 757 mmHg 51%
    07:00 +27°C° 0 mm 2 m/s 757 mmHg 45%
    08:00 +28°C° 0 mm 2 m/s 757 mmHg 40%
    09:00 +30°C° 0 mm 1 m/s 758 mmHg 34%
    10:00 +31°C° 0 mm 2 m/s 757 mmHg 32%
    11:00 +32°C° 0 mm 2 m/s 757 mmHg 29%
    12:00 +35°C° 0 mm 2 m/s 757 mmHg 26%
    13:00 +35°C° 0 mm 3 m/s 757 mmHg 26%
    14:00 +35°C° 0 mm 4 m/s 756 mmHg 26%
    15:00 +34°C° 0 mm 4 m/s 756 mmHg 26%
    16:00 +33°C° 0 mm 4 m/s 756 mmHg 29%
    17:00 +30°C° 0 mm 4 m/s 756 mmHg 33%
    18:00 +29°C° 0 mm 5 m/s 756 mmHg 37%
    19:00 +29°C° 0 mm 4 m/s 756 mmHg 37%
    20:00 +28°C° 0 mm 4 m/s 757 mmHg 38%
    21:00 +28°C° 0 mm 4 m/s 757 mmHg 38%
    22:00 +27°C° 0 mm 4 m/s 757 mmHg 38%
    23:00 +27°C° 0 mm 4 m/s 757 mmHg 38%
    Voir plus